FW9451 Weather Reports


Display with metric or nautical units.
time (UTC)temp
F
wind
direction
speed
MPH
gust
MPH
rain 1hr
in
rain 24hr
in
rain mn
in
humidity
%
barometer
mb
20260906161559 66 24 4.0 13.0 0.00 0.02 0.02 49 1016.0
20260906160055 65 355 4.0 13.0 0.00 0.02 0.02 52 1016.2
20260906154604 64 57 4.0 17.0 0.00 0.02 0.02 51 1016.4
20260906153111 64 19 4.0 13.0 0.00 0.02 0.02 53 1016.5
20260906151557 64 355 5.0 14.0 0.00 0.02 0.02 51 1016.5
20260906150057 63 350 5.0 15.0 0.00 0.02 0.02 56 1016.6
20260906144606 62 66 5.0 14.0 0.00 0.02 0.02 58 1016.9
20260906143104 62 40 5.0 14.0 0.00 0.02 0.02 60 1017.0
20260906141605 61 27 5.0 15.0 0.00 0.02 0.02 65 1016.9
20260906140108 60 42 4.0 17.0 0.00 0.02 0.02 68 1016.9
20260906134554 59 344 7.0 18.0 0.00 0.02 0.02 70 1016.8
20260906133102 59 317 4.0 11.0 0.00 0.02 0.02 74 1016.7
20260906131556 58 46 3.0 13.0 0.00 0.02 0.02 79 1016.7
20260906130103 57 5 4.0 9.0 0.00 0.02 0.02 87 1016.7
20260906124606 56 16 1.0 8.0 0.00 0.02 0.02 90 1016.9
20260906123058 55 349 1.0 8.0 0.00 0.02 0.02 91 1017.1
20260906121555 55 30 3.0 7.0 0.00 0.02 0.02 91 1017.0
20260906120124 54 18 3.0 10.0 0.00 0.02 0.02 91 1017.0
20260906114620 54 26 1.0 6.0 0.00 0.02 0.02 91 1016.8
20260906113104 54 0 1.0 5.0 0.00 0.02 0.02 91 1016.6
20260906111626 54 36 1.0 4.0 0.00 0.02 0.02 91 1016.4
20260906104608 54 0 0.0 3.0 0.01 0.02 0.02 90 1016.2
20260906103111 54 0 1.0 4.0 0.02 0.02 0.02 89 1016.4
20260906101604 54 0 0.0 4.0 0.02 0.02 0.02 89 1016.4
20260906100100 54 17 1.0 4.0 0.01 0.01 0.01 88 1016.3
20260906094557 54 352 1.0 9.0 0.01 0.01 0.01 87 1016.2
20260906093103 54 47 2.0 5.0 0.00 0.00 0.00 86 1016.0
20260906091555 55 20 1.0 5.0 0.00 0.00 0.00 85 1015.9
20260906090115 55 20 1.0 5.0 0.00 0.00 0.00 84 1015.8
20260906084609 55 15 1.0 4.0 0.00 0.00 0.00 84 1015.7
20260906083055 55 22 0.0 3.0 0.00 0.00 0.00 84 1015.5
20260906081558 55 0 0.0 3.0 0.00 0.00 0.00 83 1015.4
20260906080055 55 0 0.0 3.0 0.00 0.00 0.00 83 1015.1
20260906074607 55 59 1.0 5.0 0.00 0.00 0.00 83 1015.3
20260906073106 55 5 3.0 5.0 0.00 0.00 0.00 83 1015.4
20260906071555 56 42 2.0 7.0 0.00 0.00 0.00 84 1015.3
20260906070113 56 39 2.0 7.0 0.00 0.00 0.00 84 1015.3
20260906064559 56 0 2.0 5.0 0.00 0.00 0.00 83 1015.0
20260906063056 56 43 1.0 3.0 0.00 0.00 0.00 83 1014.8
20260906061618 56 43 0.0 2.0 0.00 0.00 0.00 83 1014.8
20260906060104 56 43 1.0 2.0 0.00 0.00 0.00 82 1014.8
20260906054606 56 43 1.0 4.0 0.00 0.00 0.00 82 1014.9
20260906053058 56 17 1.0 5.0 0.00 0.00 0.00 82 1014.9
20260906051555 56 31 1.0 4.0 0.00 0.00 0.00 82 1014.9
20260906050111 56 27 0.0 4.0 0.00 0.00 0.00 81 1015.0
20260906044558 56 41 0.0 3.0 0.00 0.00 0.00 81 1014.9
20260906043108 57 0 0.0 1.0 0.00 0.00 0.00 80 1015.0
20260906041554 57 41 1.0 3.0 0.00 0.00 0.00 79 1015.1
20260906040116 58 33 2.0 10.0 0.00 0.00 0.00 78 1015.1
20260906034558 58 19 2.0 8.0 0.00 0.00 0.00 77 1015.0
20260906033058 58 26 3.0 6.0 0.00 0.00 0.00 77 1014.9
20260906031610 59 22 2.0 9.0 0.00 0.00 0.00 76 1014.9
20260906030108 59 34 4.0 9.0 0.00 0.00 0.00 75 1014.8
20260906024600 59 21 3.0 6.0 0.00 0.00 0.00 74 1014.8
20260906023115 60 39 2.0 9.0 0.00 0.00 0.00 74 1014.6
20260906021556 60 24 2.0 9.0 0.00 0.00 0.00 74 1014.5
20260906020107 60 89 1.0 7.0 0.00 0.00 0.00 74 1014.6
20260906014626 61 30 3.0 10.0 0.00 0.00 0.00 73 1014.7
20260906013100 61 40 2.0 12.0 0.00 0.00 0.00 73 1014.6
20260906011600 61 47 4.0 14.0 0.00 0.00 0.00 73 1014.5
20260906010058 61 43 5.0 11.0 0.00 0.00 0.00 73 1014.5
20260906004614 61 72 3.0 11.0 0.00 0.00 0.00 74 1014.4
20260906003104 62 25 1.0 4.0 0.00 0.00 0.00 74 1014.3
20260906001559 63 0 0.0 4.0 0.00 0.00 0.00 72 1014.3
20260906000107 63 40 1.0 5.0 0.00 0.00 0.00 71 1014.2
20260905234601 64 30 1.0 6.0 0.00 0.00 0.00 70 1014.1
20260905233100 65 65 2.0 8.0 0.00 0.00 0.00 68 1014.1
20260905231557 65 57 4.0 11.0 0.00 0.00 0.00 67 1013.9
20260905230104 66 54 2.0 12.0 0.00 0.00 0.00 66 1013.8
20260905224607 67 37 3.0 10.0 0.00 0.00 0.00 66 1013.8
20260905223107 67 62 3.0 11.0 0.00 0.00 0.00 63 1013.6
20260905221553 69 0 0.0 5.0 0.00 0.00 0.00 60 1013.5
20260905220116 69 49 2.0 10.0 0.00 0.00 0.00 60 1013.3
20260905214557 69 336 3.0 9.0 0.00 0.00 0.00 59 1013.0
20260905213056 69 45 3.0 9.0 0.00 0.00 0.00 59 1012.8
20260905211554 69 63 3.0 9.0 0.00 0.00 0.00 61 1012.8
20260905210104 70 25 5.0 17.0 0.00 0.00 0.00 59 1012.7
20260905204556 70 27 5.0 14.0 0.00 0.00 0.00 59 1012.5
20260905203059 72 0 2.0 13.0 0.00 0.00 0.00 59 1012.4
20260905201553 69 21 3.0 9.0 0.00 0.00 0.00 63 1012.4
20260905200059 69 51 5.0 14.0 0.00 0.00 0.00 64 1012.4
20260905194556 69 36 4.0 12.0 0.00 0.00 0.00 64 1012.2
20260905193056 70 30 3.0 13.0 0.00 0.00 0.00 63 1012.2
20260905191551 71 55 6.0 12.0 0.00 0.00 0.00 62 1012.0
20260905190100 70 47 7.0 20.0 0.00 0.00 0.00 63 1012.1
20260905184603 71 5 2.0 14.0 0.00 0.00 0.00 65 1012.0
20260905183117 70 351 6.0 16.0 0.00 0.00 0.00 64 1012.0
20260905181559 69 340 4.0 14.0 0.00 0.00 0.00 66 1012.1
20260905180052 68 16 6.0 16.0 0.00 0.00 0.00 67 1012.3
20260905174556 67 42 5.0 14.0 0.00 0.00 0.00 69 1012.4
20260905173055 68 34 9.0 18.0 0.00 0.00 0.00 68 1012.4
20260905171601 66 11 6.0 14.0 0.00 0.00 0.00 71 1012.4
20260905170050 66 273 3.0 13.0 0.00 0.00 0.00 72 1012.5
20260905164605 66 26 7.0 13.0 0.00 0.00 0.00 71 1012.7
20260905163105 67 293 7.0 13.0 0.00 0.00 0.00 70 1012.5